Weather WX

World > North America > United States > New York

Schuyler County, New York Regional Weather

Lat: 42.39N, Lon: 76.86W
Wx Zone: NYZ023
Feedback

Schuyler County, NY Regional Weather

Expires:201906170200;;188050
ASUS41 KBGM 170110
RWRBGM

REGIONAL WEATHER ROUNDUP
NATIONAL WEATHER SERVICE BINGHAMTON NY
900 PM EDT SUN JUN 16 2019

Note: "fair" indicates few or no clouds below 12,000 feet with no
significant weather and/or obstructions to visibility.

* = Station(s) that does not report precipitation, such as rain, 
snow, etc, also no thunder or fog.


NYZ009-015>018-022>025-036-037-044>046-055>057-062-170200
...Central New York...
  
CITY           SKY/WX    TMP DP  RH WIND       PRES   REMARKS
Binghamton     CLOUDY    62  60  93 NW8       29.88R VSB 3/4          
Cortland       CLOUDY    59  59 100 CALM      29.89R                  
Dansville      CLOUDY    59  55  87 CALM      29.93R                  
Elmira         CLOUDY    60  57  89 NE5       29.89R                  
Endicott       CLOUDY    63  63 100 SW3       29.87R                  
Ithaca         CLOUDY    55  55 100 W5        29.90R FOG              
Hamilton       CLOUDY    61  61 100 N5        29.88R                  
Hornell        CLOUDY   N/A N/A N/A NW3       29.96R                  
Monticello     CLOUDY    64  63  96 W3        29.87S                  
Norwich        CLOUDY    63  61  94 N6        29.88R                  
Oneonta        CLOUDY    63  63 100 NE3       29.87S                  
Penn Yan       CLOUDY    58  51  78 W3        29.92R                  
Rome           MOCLDY    63  61  93 NW3       29.87R                  
Seneca Falls   CLOUDY    61  57  88 NW5       29.91R                  
Sidney         FOG       63  63 100 CALM      29.86R VSB 1            
Skaneateles    CLOUDY    59  59 100 CALM      29.90S                  
Syracuse       MOCLDY    62  59  90 W3        29.88R                  
$$
 

SKY/WX - Weather  TMP - Temperature  DP - Dew Point  RH - Relative Humidity
WIND - Wind Direction/Speed PRES - Barometric Pressure VSB - Visibility
WCI - Wind Chill Index E13G22 Wind - East Wind 13 mph/Gusts of 22 mph